Location: ?ern� Novina
(50.6762°N, 14.8696°E)
Time: 12:41:49
(UTC+00:00)

SJ-6B - Pass Details

Date: 03 March 2021
Orbit: 509 x 581 km, 97.6° (Epoch: 17 April)

Event Time Altitude Azimuth Distance (km) Brightness Sun altitude
Exits shadow 17:47:15 11° 122° (ESE) 1,813 4.9 -10.6°
Maximum altitude 17:50:30 27° 65° (ENE) 1,113 3.9 -11.1°
Drops below altitude 10° 17:53:57 10° 7° (N) 1,873 5.5 -11.6°
Sets 17:56:18 0° 356° (N) 2,763 6.5 -12.0°
